User: anonymous   Login
Location: Unspecified
(0.0000°N, 0.0000°E)
Time: 11:14:04
(UTC+02:00)
Language:

Cosmos 1626 Rocket - Orbit

View from above orbital plane
View from above orbital plane
View from above satellite
View from above satellite

Ground track
Ground track

The orbit data is extracted from the following two-line orbital elements,

1 15495U 85009B   16180.46051723  .00000098  00000-0  89014-5 0  9994
2 15495  82.5241 158.7808 0021573  59.5469 300.7873 14.83712395697510
Epoch (UTC): 28 June 2016 11:03:08
Eccentricity: 0.0021573
inclination: 82.5241°
perigee height: 602 km
apogee height: 633 km
right ascension of ascending node: 158.7808°
argument of perigee: 59.5469°
revolutions per day: 14.83712395
mean anomaly at epoch: 300.7873°
orbit number at epoch: 69751

The dashed part of the orbit path shows where the satellite is in the earth's shadow,  

DLR